W9GWP Weather Reports


Display with metric or nautical units.
time (UTC)temp
F
wind
direction
speed
MPH
gust
MPH
rain 1hr
in
rain 24hr
in
rain mn
in
humidity
%
barometer
mb
20260903090232 78 215 0.0 2.0 0.00 0.00 0.00 89 1040.5
20260903084730 79 192 1.0 4.0 0.00 0.00 0.00 87 1040.5
20260903083226 79 232 3.0 3.0 0.00 0.00 0.00 88 1040.3
20260903081721 78 208 3.0 6.0 0.00 0.00 0.00 91 1040.3
20260903080217 77 278 1.0 2.0 0.00 0.00 0.00 93 1040.4
20260903074716 77 215 0.0 0.0 0.00 0.00 0.00 94 1040.2
20260903073213 77 180 0.0 0.0 0.00 0.00 0.00 94 1040.1
20260903071713 77 180 0.0 0.0 0.00 0.00 0.00 93 1040.2
20260903070210 77 180 0.0 0.0 0.00 0.00 0.00 93 1040.3
20260903064709 77 240 0.0 0.0 0.00 0.00 0.00 92 1040.2
20260903063207 78 209 0.0 0.0 0.00 0.00 0.00 92 1040.4
20260903061705 78 220 0.0 2.0 0.00 0.00 0.00 91 1040.4
20260903060206 79 254 0.0 2.0 0.00 0.00 0.00 90 1040.6
20260903054702 79 212 0.0 2.0 0.00 0.00 0.00 90 1040.6
20260903053201 80 220 2.0 2.0 0.00 0.00 0.00 90 1040.3
20260903051658 80 246 2.0 2.0 0.00 0.00 0.00 89 1040.5
20260903050154 79 220 0.0 2.0 0.00 0.00 0.00 90 1040.2
20260903044653 79 240 0.0 2.0 0.00 0.00 0.00 89 1040.1
20260903043150 80 234 0.0 2.0 0.00 0.00 0.00 89 1040.0
20260903041648 80 254 0.0 2.0 0.00 0.00 0.00 89 1040.2
20260903040144 80 240 0.0 1.0 0.00 0.00 0.00 88 1039.9
20260903034642 81 253 0.0 2.0 0.00 0.00 0.00 87 1040.2
20260903033137 81 229 0.0 2.0 0.00 0.00 0.00 86 1040.3
20260903031635 82 243 0.0 2.0 0.00 0.00 0.00 85 1040.3
20260903030133 82 246 0.0 4.0 0.00 0.00 0.00 84 1040.1
20260903024630 82 228 2.0 3.0 0.00 0.00 0.00 84 1040.4
20260903023125 83 185 0.0 4.0 0.00 0.00 0.00 83 1040.0
20260903021626 82 240 0.0 2.0 0.00 0.00 0.00 84 1040.2
20260903020121 82 234 0.0 1.0 0.00 0.00 0.00 85 1040.1
20260903014618 81 261 0.0 1.0 0.00 0.00 0.00 86 1040.0
20260903013113 81 180 0.0 0.0 0.00 0.00 0.00 86 1039.9
20260903011611 82 180 0.0 0.0 0.00 0.00 0.00 85 1039.9
20260903010111 82 180 0.0 0.0 0.00 0.00 0.00 84 1039.7
20260903004607 83 180 0.0 0.0 0.00 0.00 0.00 82 1039.5
20260903003105 84 180 0.0 0.0 0.00 0.00 0.00 81 1039.7
20260903001601 85 180 0.0 0.0 0.00 0.00 0.00 79 1039.5
20260903000055 87 203 0.0 0.0 0.00 0.00 0.00 75 1039.6
20260902234556 88 203 0.0 0.0 0.00 0.00 0.00 73 1039.5
20260902233056 89 203 2.0 2.0 0.00 0.00 0.00 69 1039.2
20260902231555 91 249 1.0 3.0 0.00 0.00 0.00 67 1038.9
20260902230055 91 249 0.0 2.0 0.00 0.00 0.00 67 1038.9
20260902224554 90 270 0.0 4.0 0.00 0.00 0.00 67 1039.1
20260902223051 92 237 2.0 3.0 0.00 0.00 0.00 64 1039.4
20260902221550 92 250 4.0 5.0 0.00 0.00 0.00 62 1039.4
20260902220046 92 162 2.0 4.0 0.00 0.00 0.00 61 1039.5
20260902214543 93 215 1.0 6.0 0.00 0.00 0.00 60 1039.6
20260902213043 93 251 2.0 7.0 0.00 0.00 0.00 60 1039.5
20260902211543 91 255 1.0 6.0 0.00 0.00 0.00 62 1039.5
20260902210043 92 196 0.0 2.0 0.00 0.00 0.00 60 1039.5
20260902204538 92 156 5.0 9.0 0.00 0.00 0.00 62 1039.6
20260902203033 93 240 4.0 7.0 0.00 0.00 0.00 60 1039.5
20260902201533 93 237 2.0 10.0 0.00 0.00 0.00 61 1039.7
20260902200030 92 261 5.0 10.0 0.00 0.00 0.00 60 1039.8
20260902194530 93 212 5.0 8.0 0.00 0.00 0.00 59 1039.8
20260902193026 91 208 3.0 8.0 0.00 0.00 0.00 62 1039.9
20260902191526 90 239 2.0 5.0 0.00 0.00 0.00 63 1040.2
20260902190023 92 258 3.0 5.0 0.00 0.00 0.00 62 1040.2
20260902184521 91 217 4.0 5.0 0.00 0.00 0.00 63 1040.2
20260902183020 91 275 2.0 5.0 0.00 0.00 0.00 64 1040.3
20260902181520 90 180 4.0 5.0 0.00 0.00 0.00 64 1040.6
20260902180016 90 208 2.0 7.0 0.00 0.00 0.00 64 1040.5
20260902174514 90 180 0.0 3.0 0.00 0.00 0.00 65 1040.6
20260902173010 91 202 2.0 6.0 0.00 0.00 0.00 65 1040.4
20260902171506 90 228 0.0 4.0 0.00 0.00 0.00 65 1040.3
20260902170004 89 192 0.0 5.0 0.00 0.00 0.00 65 1040.8
20260902164459 89 218 3.0 6.0 0.00 0.00 0.00 65 1040.9
20260902162956 88 254 2.0 4.0 0.00 0.00 0.00 67 1040.9
20260902161453 87 154 0.0 5.0 0.00 0.00 0.00 69 1041.0
20260902155948 86 185 0.0 3.0 0.00 0.00 0.00 70 1041.3
20260902154445 86 217 2.0 4.0 0.00 0.00 0.00 69 1041.1
20260902152945 84 175 0.0 5.0 0.00 0.00 0.00 72 1041.4
20260902151444 85 254 2.0 4.0 0.00 0.00 0.00 73 1041.2
20260902145939 84 180 0.0 3.0 0.00 0.00 0.00 73 1041.4
20260902144437 83 252 0.0 4.0 0.00 0.00 0.00 77 1041.3
20260902142934 81 249 1.0 3.0 0.00 0.00 0.00 79 1041.9
20260902141432 81 203 0.0 4.0 0.00 0.00 0.00 78 1041.6
20260902135932 80 192 0.0 3.0 0.00 0.00 0.00 81 1041.7
20260902134429 80 240 0.0 3.0 0.00 0.00 0.00 80 1041.9
20260902132925 79 275 2.0 3.0 0.00 0.00 0.00 80 1042.4
20260902131424 78 234 1.0 3.0 0.00 0.00 0.00 83 1041.9
20260902125919 77 282 0.0 2.0 0.00 0.00 0.00 84 1042.4
20260902124419 78 261 2.0 5.0 0.00 0.00 0.00 82 1041.9
20260902122920 78 186 0.0 2.0 0.00 0.00 0.00 83 1041.4
20260902121418 76 196 2.0 3.0 0.00 0.00 0.00 85 1041.3
20260902115914 75 203 2.0 4.0 0.00 0.00 0.00 87 1041.2
20260902114414 75 270 0.0 1.0 0.00 0.00 0.00 88 1041.1
20260902112909 75 225 2.0 3.0 0.00 0.00 0.00 88 1041.1
20260902111404 75 166 0.0 2.0 0.00 0.00 0.00 88 1041.0
20260902105901 75 206 0.0 2.0 0.00 0.00 0.00 89 1041.1
20260902104359 75 210 2.0 3.0 0.00 0.00 0.00 89 1041.1
20260902102854 74 210 0.0 4.0 0.00 0.00 0.00 90 1041.1
20260902101354 74 203 1.0 2.0 0.00 0.00 0.00 90 1041.0
20260902095854 74 195 0.0 3.0 0.00 0.00 0.00 91 1041.2
20260902094351 73 215 0.0 2.0 0.00 0.00 0.00 93 1041.2
20260902092850 73 180 0.0 1.0 0.00 0.00 0.00 96 1041.3
20260902091347 73 180 0.0 1.0 0.00 0.00 0.00 96 1041.5